Time,TemperatureF,DewpointF,PressureIn,WindDirection,WindDirectionDegrees,WindSpeedMPH,WindSpeedGustMPH,Humidity,HourlyPrecipIn,Conditions,Clouds,dailyrainin,SolarRadiationWatts/m^2,SoftwareType,DateUTC
2013-01-20 00:01:00,37.0,26.0,-100.00,WSW,258,9.0,19.0,63,0.00,,,0.00,0.000000,,2013-01-20 05:01:00,
2013-01-20 00:23:00,37.0,26.0,-100.00,WSW,258,9.0,19.0,63,0.00,,,0.00,0.000000,,2013-01-20 05:23:00,
2013-01-20 00:33:00,37.0,26.0,-100.00,WSW,258,9.0,19.0,63,0.00,,,0.00,0.000000,,2013-01-20 05:33:00,
2013-01-20 00:43:00,37.0,26.0,-100.00,WSW,258,9.0,19.0,63,0.00,,,0.00,0.000000,,2013-01-20 05:43:00,
2013-01-20 00:53:00,37.0,26.0,-100.00,WSW,258,9.0,19.0,63,0.00,,,0.00,0.000000,,2013-01-20 05:53:00,
2013-01-20 01:01:00,36.0,28.0,-100.00,WSW,250,8.0,25.0,71,0.00,,,0.00,0.000000,,2013-01-20 06:01:00,
2013-01-20 01:22:00,36.0,28.0,-100.00,WSW,250,8.0,25.0,71,0.00,,,0.00,0.000000,,2013-01-20 06:22:00,
2013-01-20 01:33:00,36.0,28.0,-100.00,WSW,250,8.0,25.0,71,0.00,,,0.00,0.000000,,2013-01-20 06:33:00,
2013-01-20 01:43:00,36.0,28.0,-100.00,WSW,250,8.0,25.0,71,0.00,,,0.00,0.000000,,2013-01-20 06:43:00,
2013-01-20 01:53:00,36.0,28.0,-100.00,WSW,250,8.0,25.0,71,0.00,,,0.00,0.000000,,2013-01-20 06:53:00,
2013-01-20 02:01:00,37.0,27.0,-100.00,North,351,3.0,21.0,66,0.00,,,0.00,0.000000,,2013-01-20 07:01:00,
2013-01-20 02:32:00,37.0,27.0,-100.00,North,351,3.0,21.0,66,0.00,,,0.00,0.000000,,2013-01-20 07:32:00,
2013-01-20 02:42:00,37.0,27.0,-100.00,North,351,3.0,21.0,66,0.00,,,0.00,0.000000,,2013-01-20 07:42:00,
2013-01-20 02:52:00,37.0,27.0,-100.00,North,351,3.0,21.0,66,0.00,,,0.00,0.000000,,2013-01-20 07:52:00,
2013-01-20 03:01:00,38.0,22.0,-100.00,South,191,3.0,17.0,53,0.00,,,0.00,0.000000,,2013-01-20 08:01:00,
2013-01-20 03:22:00,38.0,22.0,-100.00,South,191,3.0,17.0,53,0.00,,,0.00,0.000000,,2013-01-20 08:22:00,
2013-01-20 03:32:00,38.0,22.0,-100.00,South,191,3.0,17.0,53,0.00,,,0.00,0.000000,,2013-01-20 08:32:00,
2013-01-20 03:42:00,38.0,22.0,-100.00,South,191,3.0,17.0,53,0.00,,,0.00,0.000000,,2013-01-20 08:42:00,
2013-01-20 03:53:00,38.0,22.0,-100.00,South,191,3.0,17.0,53,0.00,,,0.00,0.000000,,2013-01-20 08:53:00,
2013-01-20 04:01:00,39.0,20.0,-100.00,SSW,213,6.0,21.0,47,0.00,,,0.00,0.000000,,2013-01-20 09:01:00,
2013-01-20 04:33:00,39.0,20.0,-100.00,SSW,213,6.0,21.0,47,0.00,,,0.00,0.000000,,2013-01-20 09:33:00,
2013-01-20 04:42:00,39.0,20.0,-100.00,SSW,213,6.0,21.0,47,0.00,,,0.00,0.000000,,2013-01-20 09:42:00,
2013-01-20 04:53:00,39.0,20.0,-100.00,SSW,213,6.0,21.0,47,0.00,,,0.00,0.000000,,2013-01-20 09:53:00,
2013-01-20 05:01:00,38.0,20.0,-100.00,SSW,198,7.0,22.0,48,0.00,,,0.00,0.000000,,2013-01-20 10:01:00,
2013-01-20 05:33:00,38.0,20.0,-100.00,SSW,198,7.0,22.0,48,0.00,,,0.00,0.000000,,2013-01-20 10:33:00,
2013-01-20 05:42:00,38.0,20.0,-100.00,SSW,198,7.0,22.0,48,0.00,,,0.00,0.000000,,2013-01-20 10:42:00,
2013-01-20 05:53:00,38.0,20.0,-100.00,SSW,198,7.0,22.0,48,0.00,,,0.00,0.000000,,2013-01-20 10:53:00,
2013-01-20 06:01:00,38.0,21.0,-100.00,SSW,211,6.0,19.0,50,0.00,,,0.00,0.000000,,2013-01-20 11:01:00,
2013-01-20 06:22:00,38.0,21.0,-100.00,SSW,211,6.0,19.0,50,0.00,,,0.00,0.000000,,2013-01-20 11:22:00,
2013-01-20 06:33:00,38.0,21.0,-100.00,SSW,211,6.0,19.0,50,0.00,,,0.00,0.000000,,2013-01-20 11:33:00,
2013-01-20 06:43:00,38.0,21.0,-100.00,SSW,211,6.0,19.0,50,0.00,,,0.00,0.000000,,2013-01-20 11:43:00,
2013-01-20 06:54:00,38.0,21.0,-100.00,SSW,211,6.0,19.0,50,0.00,,,0.00,0.000000,,2013-01-20 11:54:00,
2013-01-20 07:01:00,39.0,22.0,-100.00,SSW,213,6.0,22.0,51,0.00,,,0.00,0.000000,,2013-01-20 12:01:00,
2013-01-20 07:33:00,39.0,22.0,-100.00,SSW,213,6.0,22.0,51,0.00,,,0.00,0.000000,,2013-01-20 12:33:00,
2013-01-20 07:43:00,39.0,22.0,-100.00,SSW,213,6.0,22.0,51,0.00,,,0.00,0.000000,,2013-01-20 12:43:00,
2013-01-20 07:53:00,39.0,22.0,-100.00,SSW,213,6.0,22.0,51,0.00,,,0.00,0.000000,,2013-01-20 12:53:00,
2013-01-20 08:01:00,38.0,25.0,-100.00,SW,235,8.0,31.0,60,0.00,,,0.00,4.000000,,2013-01-20 13:01:00,
2013-01-20 08:33:00,38.0,25.0,-100.00,SW,235,8.0,31.0,60,0.00,,,0.00,4.000000,,2013-01-20 13:33:00,
2013-01-20 08:43:00,38.0,25.0,-100.00,SW,235,8.0,31.0,60,0.00,,,0.00,4.000000,,2013-01-20 13:43:00,
2013-01-20 08:53:00,38.0,25.0,-100.00,SW,235,8.0,31.0,60,0.00,,,0.00,4.000000,,2013-01-20 13:53:00,
2013-01-20 09:01:00,29.0,27.0,-100.00,West,266,11.0,31.0,94,0.00,,,0.00,15.000000,,2013-01-20 14:01:00,
2013-01-20 09:23:00,29.0,27.0,-100.00,West,266,11.0,31.0,94,0.00,,,0.00,15.000000,,2013-01-20 14:23:00,
2013-01-20 09:33:00,29.0,27.0,-100.00,West,266,11.0,31.0,94,0.00,,,0.00,15.000000,,2013-01-20 14:33:00,
2013-01-20 09:43:00,29.0,27.0,-100.00,West,266,11.0,31.0,94,0.00,,,0.00,15.000000,,2013-01-20 14:43:00,
2013-01-20 09:53:00,29.0,27.0,-100.00,West,266,11.0,31.0,94,0.00,,,0.00,15.000000,,2013-01-20 14:53:00,
2013-01-20 10:01:00,29.0,27.0,-100.00,West,263,10.0,29.0,91,0.00,,,0.00,42.000000,,2013-01-20 15:01:00,
2013-01-20 10:33:00,29.0,27.0,-100.00,West,263,10.0,29.0,91,0.00,,,0.00,42.000000,,2013-01-20 15:33:00,
2013-01-20 10:43:00,29.0,27.0,-100.00,West,263,10.0,29.0,91,0.00,,,0.00,42.000000,,2013-01-20 15:43:00,
2013-01-20 10:53:00,29.0,27.0,-100.00,West,263,10.0,29.0,91,0.00,,,0.00,42.000000,,2013-01-20 15:53:00,
2013-01-20 11:01:00,26.0,22.0,-100.00,West,260,14.0,44.0,84,0.00,,,0.00,69.000000,,2013-01-20 16:01:00,
2013-01-20 11:33:00,26.0,22.0,-100.00,West,260,14.0,44.0,84,0.00,,,0.00,69.000000,,2013-01-20 16:33:00,
2013-01-20 11:43:00,26.0,22.0,-100.00,West,260,14.0,44.0,84,0.00,,,0.00,69.000000,,2013-01-20 16:43:00,
2013-01-20 11:53:00,26.0,22.0,-100.00,West,260,14.0,44.0,84,0.00,,,0.00,69.000000,,2013-01-20 16:53:00,
2013-01-20 12:01:00,27.0,22.0,-100.00,West,265,14.0,39.0,81,0.00,,,0.00,200.000000,,2013-01-20 17:01:00,
2013-01-20 12:33:00,27.0,22.0,-100.00,West,265,14.0,39.0,81,0.00,,,0.00,200.000000,,2013-01-20 17:33:00,
2013-01-20 12:43:00,27.0,22.0,-100.00,West,265,14.0,39.0,81,0.00,,,0.00,200.000000,,2013-01-20 17:43:00,
2013-01-20 12:53:00,27.0,22.0,-100.00,West,265,14.0,39.0,81,0.00,,,0.00,200.000000,,2013-01-20 17:53:00,
2013-01-20 13:01:00,24.0,17.0,-100.00,West,262,14.0,40.0,73,0.00,,,0.00,227.000000,,2013-01-20 18:01:00,
2013-01-20 13:24:00,24.0,17.0,-100.00,West,262,14.0,40.0,73,0.00,,,0.00,227.000000,,2013-01-20 18:24:00,
2013-01-20 13:33:00,24.0,17.0,-100.00,West,262,14.0,40.0,73,0.00,,,0.00,227.000000,,2013-01-20 18:33:00,
2013-01-20 13:43:00,24.0,17.0,-100.00,West,262,14.0,40.0,73,0.00,,,0.00,227.000000,,2013-01-20 18:43:00,
2013-01-20 13:53:00,24.0,17.0,-100.00,West,262,14.0,40.0,73,0.00,,,0.00,227.000000,,2013-01-20 18:53:00,
2013-01-20 14:01:00,22.0,13.0,-100.00,West,262,13.0,41.0,69,0.00,,,0.00,152.000000,,2013-01-20 19:01:00,
2013-01-20 14:33:00,22.0,13.0,-100.00,West,262,13.0,41.0,69,0.00,,,0.00,152.000000,,2013-01-20 19:33:00,
2013-01-20 14:43:00,22.0,13.0,-100.00,West,262,13.0,41.0,69,0.00,,,0.00,152.000000,,2013-01-20 19:43:00,
2013-01-20 14:53:00,22.0,13.0,-100.00,West,262,13.0,41.0,69,0.00,,,0.00,152.000000,,2013-01-20 19:53:00,
2013-01-20 15:01:00,20.0,16.0,-100.00,West,264,9.0,32.0,83,0.00,,,0.00,59.000000,,2013-01-20 20:01:00,
2013-01-20 15:33:00,20.0,16.0,-100.00,West,264,9.0,32.0,83,0.00,,,0.00,59.000000,,2013-01-20 20:33:00,
2013-01-20 15:42:00,20.0,16.0,-100.00,West,264,9.0,32.0,83,0.00,,,0.00,59.000000,,2013-01-20 20:42:00,
2013-01-20 15:54:00,20.0,16.0,-100.00,West,264,9.0,32.0,83,0.00,,,0.00,59.000000,,2013-01-20 20:54:00,
2013-01-20 16:01:00,19.0,11.0,-100.00,West,266,11.0,30.0,69,0.00,,,0.00,59.000000,,2013-01-20 21:01:00,
2013-01-20 16:33:00,19.0,11.0,-100.00,West,266,11.0,30.0,69,0.00,,,0.00,59.000000,,2013-01-20 21:33:00,
2013-01-20 16:43:00,19.0,11.0,-100.00,West,266,11.0,30.0,69,0.00,,,0.00,59.000000,,2013-01-20 21:43:00,
2013-01-20 16:53:00,19.0,11.0,-100.00,West,266,11.0,30.0,69,0.00,,,0.00,59.000000,,2013-01-20 21:53:00,
2013-01-20 17:01:00,17.0,7.0,-100.00,West,267,11.0,36.0,63,0.00,,,0.00,21.000000,,2013-01-20 22:01:00,
2013-01-20 17:33:00,17.0,7.0,-100.00,West,267,11.0,36.0,63,0.00,,,0.00,21.000000,,2013-01-20 22:33:00,
2013-01-20 17:43:00,17.0,7.0,-100.00,West,267,11.0,36.0,63,0.00,,,0.00,21.000000,,2013-01-20 22:43:00,
2013-01-20 17:53:00,17.0,7.0,-100.00,West,267,11.0,36.0,63,0.00,,,0.00,21.000000,,2013-01-20 22:53:00,
2013-01-20 18:01:00,15.0,9.0,-100.00,West,268,10.0,29.0,78,0.00,,,0.00,0.000000,,2013-01-20 23:01:00,
2013-01-20 18:23:00,15.0,9.0,-100.00,West,268,10.0,29.0,78,0.00,,,0.00,0.000000,,2013-01-20 23:23:00,
2013-01-20 18:33:00,15.0,9.0,-100.00,West,268,10.0,29.0,78,0.00,,,0.00,0.000000,,2013-01-20 23:33:00,
2013-01-20 18:43:00,15.0,9.0,-100.00,West,268,10.0,29.0,78,0.00,,,0.00,0.000000,,2013-01-20 23:43:00,
2013-01-20 18:53:00,15.0,9.0,-100.00,West,268,10.0,29.0,78,0.00,,,0.00,0.000000,,2013-01-20 23:53:00,
2013-01-20 19:01:00,14.0,5.0,-100.00,West,264,10.0,24.0,66,0.00,,,0.00,0.000000,,2013-01-21 00:01:00,
2013-01-20 19:23:00,14.0,5.0,-100.00,West,264,10.0,24.0,66,0.00,,,0.00,0.000000,,2013-01-21 00:23:00,
2013-01-20 19:33:00,14.0,5.0,-100.00,West,264,10.0,24.0,66,0.00,,,0.00,0.000000,,2013-01-21 00:33:00,
2013-01-20 19:43:00,14.0,5.0,-100.00,West,264,10.0,24.0,66,0.00,,,0.00,0.000000,,2013-01-21 00:43:00,
2013-01-20 19:54:00,14.0,5.0,-100.00,West,264,10.0,24.0,66,0.00,,,0.00,0.000000,,2013-01-21 00:54:00,
2013-01-20 20:01:00,11.0,1.0,-100.00,West,263,9.0,24.0,62,0.00,,,0.00,0.000000,,2013-01-21 01:01:00,
2013-01-20 20:33:00,11.0,1.0,-100.00,West,263,9.0,24.0,62,0.00,,,0.00,0.000000,,2013-01-21 01:33:00,
2013-01-20 20:43:00,11.0,1.0,-100.00,West,263,9.0,24.0,62,0.00,,,0.00,0.000000,,2013-01-21 01:43:00,
2013-01-20 20:53:00,11.0,1.0,-100.00,West,263,9.0,24.0,62,0.00,,,0.00,0.000000,,2013-01-21 01:53:00,
2013-01-20 21:01:00,9.0,-3.0,-100.00,West,264,12.0,29.0,58,0.00,,,0.00,0.000000,,2013-01-21 02:01:00,
2013-01-20 21:23:00,9.0,-3.0,-100.00,West,264,12.0,29.0,58,0.00,,,0.00,0.000000,,2013-01-21 02:23:00,
2013-01-20 21:33:00,9.0,-3.0,-100.00,West,264,12.0,29.0,58,0.00,,,0.00,0.000000,,2013-01-21 02:33:00,
2013-01-20 21:43:00,9.0,-3.0,-100.00,West,264,12.0,29.0,58,0.00,,,0.00,0.000000,,2013-01-21 02:43:00,
2013-01-20 21:53:00,9.0,-3.0,-100.00,West,264,12.0,29.0,58,0.00,,,0.00,0.000000,,2013-01-21 02:53:00,
2013-01-20 22:01:00,8.0,-2.0,-100.00,West,268,9.0,23.0,62,0.00,,,0.00,0.000000,,2013-01-21 03:01:00,
2013-01-20 22:33:00,8.0,-2.0,-100.00,West,268,9.0,23.0,62,0.00,,,0.00,0.000000,,2013-01-21 03:33:00,
2013-01-20 22:43:00,8.0,-2.0,-100.00,West,268,9.0,23.0,62,0.00,,,0.00,0.000000,,2013-01-21 03:43:00,
2013-01-20 22:54:00,8.0,-2.0,-100.00,West,268,9.0,23.0,62,0.00,,,0.00,0.000000,,2013-01-21 03:54:00,
2013-01-20 23:01:00,7.0,-3.0,-100.00,West,275,7.0,23.0,64,0.00,,,0.00,0.000000,,2013-01-21 04:01:00,
2013-01-20 23:33:00,7.0,-3.0,-100.00,West,275,7.0,23.0,64,0.00,,,0.00,0.000000,,2013-01-21 04:33:00,
2013-01-20 23:43:00,7.0,-3.0,-100.00,West,275,7.0,23.0,64,0.00,,,0.00,0.000000,,2013-01-21 04:43:00,
2013-01-20 23:53:00,7.0,-3.0,-100.00,West,275,7.0,23.0,64,0.00,,,0.00,0.000000,,2013-01-21 04:53:00,